Home   Weather   Tashkent   Past weeks
Flag for Uzbekistan

Past Weather in Tashkent, Uzbekistan — Yesterday and Last 2 Weeks

Now
57 °F

Partly sunny.


Feels Like: 57 °F
Forecast: 60 / 50 °F
Wind: 2 mph from North

Location: Tashkent

Current Time: Mar 20, 2019 at 11:20:35 am

Latest Report: Mar 20, 2019 at 10:30 am


Visibility: 4 mi

Pressure: 30.04 "Hg

Humidity: 67%

Dew Point: 46 °F

Location of TashkentLocation

Past Weather in Tashkent — Graph

°F

Tashkent Temperature Yesterday

Maximum temperature yesterday: 63 °F (at 10:30 am)
Minimum temperature yesterday: 54 °F (at 5:00 am)
Average temperature yesterday: 58 °F

High & Low Weather Summary for the Past Weeks

 TemperatureHumidityPressure
High81 °F (Mar 18, 2:00 pm)100% (Mar 6, 8:30 am)30.33 "Hg (Mar 6, 8:30 am)
Low36 °F (Mar 7, 7:00 am)11% (Mar 18, 1:30 pm)29.56 "Hg (Mar 18, 3:00 pm)
Average55 °F53%30.03 "Hg
* Reported Mar 5 10:00 am — Mar 20 10:00 am, Tashkent. Weather by CustomWeather, © 2019

Note: Actual official high and low records may vary slightly from our data, if they occured in-between our weather recording intervals... More about our weather records

Advertising

Tashkent Weather History for the Previous 24 Hours

Scroll right to see more
 ConditionsComfort  
Time TempWeatherWind HumidityBarometerVisibility
10:00 am
Wed, Mar 20
55 °FPartly sunny.5 mph72%30.04 "Hg4 mi
9:30 am55 °FSprinkles. Partly sunny.5 mph77%30.04 "Hg4 mi
9:00 am55 °FSprinkles. Partly sunny.2 mph77%30.04 "Hg4 mi
8:30 am55 °FPartly sunny.2 mph77%30.01 "Hg4 mi
8:00 am54 °FScattered clouds.2 mph82%30.01 "Hg4 mi
7:30 am54 °FPassing clouds.5 mph82%30.01 "HgN/A
7:00 am54 °FPassing clouds.2 mph82%30.01 "HgN/A
6:30 am54 °FPassing clouds.2 mph77%30.01 "HgN/A
5:30 am54 °FPassing clouds.5 mph82%29.98 "HgN/A
5:00 am54 °FPassing clouds.2 mph82%29.98 "HgN/A
4:30 am52 °FPassing clouds.5 mph88%29.98 "HgN/A
4:00 am54 °FPassing clouds.2 mph77%29.98 "HgN/A
3:00 am54 °FPassing clouds.No wind82%30.01 "HgN/A
2:30 am54 °FSprinkles. Overcast.2 mph77%30.01 "HgN/A
1:30 am54 °FSprinkles. Overcast.5 mph82%30.01 "HgN/A
1:00 am54 °FSprinkles. Overcast.5 mph82%30.01 "HgN/A
12:30 am54 °FSprinkles. Passing clouds.7 mph82%30.01 "HgN/A
12:00 am54 °FPassing clouds.5 mph82%30.01 "HgN/A
11:30 pm
Tue, Mar 19
54 °FPassing clouds.5 mph82%30.01 "HgN/A
11:00 pm54 °FPassing clouds.5 mph82%30.01 "HgN/A
10:30 pm55 °FPassing clouds.2 mph77%30.01 "HgN/A
10:00 pm55 °FSprinkles. Passing clouds.9 mph77%30.01 "HgN/A
9:30 pm55 °FSprinkles. Passing clouds.5 mph72%30.01 "HgN/A
9:00 pm55 °FPassing clouds.9 mph72%30.01 "HgN/A
8:30 pm57 °FPassing clouds.7 mph67%30.01 "HgN/A
8:00 pm57 °FPassing clouds.7 mph63%29.98 "HgN/A
7:30 pm57 °FPassing clouds.7 mph63%29.98 "HgN/A
7:00 pm59 °FPassing clouds.7 mph59%29.98 "HgN/A
6:30 pm59 °FScattered clouds.7 mph59%29.95 "HgN/A
6:00 pm59 °FScattered clouds.9 mph59%29.95 "HgN/A
5:30 pm59 °FScattered clouds.7 mph59%29.95 "HgN/A
5:00 pm61 °FScattered clouds.5 mph52%29.92 "HgN/A
4:30 pm63 °FScattered clouds.5 mph45%29.92 "HgN/A
4:00 pm63 °FScattered clouds.5 mph45%29.92 "HgN/A
3:30 pm63 °FScattered clouds.5 mph49%29.92 "HgN/A
3:00 pm63 °FScattered clouds.7 mph45%29.92 "HgN/A
2:30 pm63 °FScattered clouds.9 mph45%29.92 "HgN/A
2:00 pm63 °FScattered clouds.7 mph45%29.92 "HgN/A
1:30 pm63 °FScattered clouds.2 mph45%29.89 "HgN/A
1:00 pm63 °FScattered clouds.5 mph42%29.89 "HgN/A
12:30 pm63 °FScattered clouds.7 mph45%29.92 "HgN/A
12:00 pm63 °FPassing clouds.7 mph45%29.92 "HgN/A
11:30 am61 °FSunny.9 mph48%29.92 "Hg10 mi
11:00 am63 °FSunny.7 mph42%29.89 "Hg10 mi
Weather by CustomWeather, © 2019

See weather overview